Location: La Junie
(44.7428°N, 2.1773°E)
Time: 08:39:09
(UTC+00:00)

Daily predictions for brighter satellites

Satellite Brightness Start Highest point End
(mag) Time Altitude Azimuth Time Altitude Azimuth Time Altitude Azimuth
Cosmos 1980 Rocket 2.3 19:37:53 10° NNW 19:43:37 83° WSW 19:49:16 10° SSE
Cosmos 2228 3.5 19:40:44 10° SSE 19:44:29 36° E 19:48:16 10° NNE
COSMOS 2406 4.0 19:39:46 10° SSE 19:44:44 31° ESE 19:49:42 10° NE
CSL-04 Rocket 4.0 19:41:16 10° S 19:46:44 75° WSW 19:52:11 10° NNW
Cosmos 2084 Rocket 3.5 19:43:49 10° NW 19:48:02 75° NE 19:52:17 10° SE
ISS -1.8 19:45:06 10° W 19:48:08 31° NNW 19:51:09 10° NE
Cosmos 1461 3.6 19:45:34 10° S 19:48:38 25° ESE 19:51:42 10° ENE
Cosmos 1992 Rocket 4.5 19:44:17 10° S 19:49:05 40° ESE 19:53:55 10° NE
Cosmos 1455 Rocket 3.1 19:44:48 10° S 19:49:10 68° E 19:53:32 10° NNE
SL-08 R/B 4.0 19:45:04 10° NNE 19:49:25 33° E 19:53:39 10° SSE
Cosmos 1802 Rocket 4.0 19:43:55 10° S 19:50:03 73° E 19:56:10 10° NNE
Cosmos 1743 2.1 19:47:20 10° N 19:50:20 63° E 19:53:19 10° SSE
Terra 2.0 19:47:13 10° SSE 19:51:48 58° ENE 19:56:25 10° N
Cosmos 1892 Rocket 3.5 19:48:17 10° N 19:52:36 69° E 19:56:51 10° SSE
Okean O Rocket 2.7 19:52:51 10° SE 19:56:33 29° ENE 20:00:15 10° N
Cosmos 2333 Rocket 3.4 19:54:23 10° N 19:59:22 30° NE 20:04:21 10° ESE
NOSS 3-3 (A) 3.6 19:57:22 10° SSW 20:02:25 79° SE 20:08:26 10° NE
Okean 1 Rocket 4.4 19:58:28 10° SSW 20:02:40 43° WNW 20:06:55 10° N
Cosmos 1437 Rocket 4.1 20:03:17 11° SE 20:05:34 19° E 20:08:09 10° NE
CZ-4B DEB 4.4 20:03:25 10° S 20:08:56 77° WSW 20:14:29 10° NNW
Cosmos 2360 Rocket 3.8 20:04:50 10° N 20:09:14 22° NE 20:13:35 10° E
Milstar 3 4.4 20:05:47 10° SW 20:10:08 18° S 20:15:09 10° SSE
Helios 1A Rocket 2.2 20:07:36 10° NNE 20:10:45 88° WNW 20:13:53 10° SSW
CZ-4B R/B 3.3 20:06:27 10° SSE 20:12:06 83° ENE 20:17:44 10° NNW
Cosmos 2233 Rocket 4.0 20:07:29 10° S 20:13:38 70° E 20:19:45 10° NNE
Cosmos 1302 Rocket 4.4 20:11:14 10° SSW 20:16:22 68° WNW 20:21:34 10° NNE
Okean-O 3.0 20:14:53 13° SE 20:18:36 47° ENE 20:22:49 10° N
Cosmos 909 Rocket 4.0 20:13:16 10° SSW 20:19:39 85° ESE 20:26:06 10° NE
Cosmos 2219 Rocket 4.0 20:17:54 10° N 20:21:48 19° NE 20:25:42 10° E
Cosmos 1758 Rocket 4.1 20:18:24 10° N 20:22:37 42° ENE 20:25:50 16° SE
GEOS 3 Rocket 4.1 20:22:54 11° SSE 20:27:52 60° SW 20:33:12 10° NW
ADEOS 3.7 20:25:35 10° S 20:30:47 75° WSW 20:36:01 10° NNW
NOSS 3-3 (C) 3.9 20:29:50 10° SW 20:34:59 76° NW 20:41:10 10° NE
Cosmos 220 Rocket 4.3 20:31:55 13° S 20:35:12 38° ESE 20:39:01 10° NE
Cosmos 2322 Rocket 3.0 20:36:50 10° NNW 20:42:08 38° NE 20:45:49 18° ESE
Cosmos 2082 Rocket 3.4 20:39:13 10° SW 20:44:41 46° WNW 20:50:11 10° NNE
Cosmos 1602 Rocket 4.1 20:42:27 10° N 20:46:34 42° ENE 20:48:44 24° SE
Tsikada Rocket 4.2 20:40:56 10° NNW 20:47:04 70° W 20:53:10 10° S
NOSS 3-4 (A) 4.2 20:42:45 10° NNW 20:49:20 56° NE 20:55:07 18° ESE
NOSS 3-4 (C) 4.2 20:43:23 10° NNW 20:49:59 55° NE 20:55:45 18° ESE
DELTA 2 R/B (1) 3.9 20:44:56 10° W 20:50:17 49° S 20:53:40 22° ESE
CZ-4B R/B 3.1 20:49:58 28° ESE 20:51:13 40° ENE 20:54:30 10° N
YAOGAN 11 4.1 20:49:13 10° NNE 20:53:40 87° WNW 20:58:09 10° SSW
Cosmos 2098 Rocket 3.6 20:53:24 24° SSE 20:55:43 41° E 20:59:42 10° NNE
Cosmos 2151 2.8 20:52:45 10° N 20:56:52 78° E 20:59:05 26° SSE
Ariane Rocket 3.3 20:59:02 25° SE 21:01:45 52° ENE 21:06:40 10° N
Cosmos 1626 Rocket 3.8 20:58:20 10° NNW 21:02:41 66° W 21:05:43 19° S
Spot 2 Rocket 4.1 21:03:00 15° S 21:07:06 53° W 21:12:02 10° NNW
Cosmos 2278 3.7 21:03:43 10° NNW 21:09:28 82° ENE 21:12:37 28° SSE
SPOT 3 Rocket 3.5 21:09:24 26° SSE 21:12:19 83° ENE 21:17:29 10° NNW
Cosmos 1763 Rocket 4.0 21:10:53 29° SSE 21:12:53 40° ESE 21:17:47 10° NE
SL-16 R/B 2.3 21:07:48 10° NNW 21:13:29 75° WSW 21:16:43 26° SSE
USA 186 2.9 21:12:57 24° SW 21:13:55 31° W 21:16:25 10° NNW
Meteor 1-5 Rocket 4.4 21:08:53 10° N 21:14:37 62° ENE 21:17:38 29° SSE
USA 290 2.2 21:18:07 55° E 21:18:07 55° E 21:21:05 10° NNE
Cosmos 1606 Rocket 3.7 21:17:14 37° SSE 21:18:36 53° E 21:22:49 10° NNE
Cosmos 1513 Rocket 4.5 21:15:01 14° S 21:20:28 86° W 21:26:38 10° N
Cosmos 1464 Rocket 3.9 21:18:41 24° S 21:22:28 69° E 21:28:37 10° NNE
Cosmos 1933 3.8 21:19:51 18° SSW 21:22:28 53° W 21:26:13 10° N
CZ-4B R/B 3.3 21:23:15 34° SSE 21:25:22 88° E 21:30:15 10° NNW
ISS -1.6 21:22:44 10° NW 21:25:34 25° N 21:28:15 11° ENE
Okean 1 3.2 21:25:54 49° ESE 21:26:04 49° E 21:29:33 10° NNE
Cosmos 1726 Rocket 3.7 21:25:49 41° ESE 21:26:20 44° E 21:30:11 10° NNE
BREEZE-M DEB (TANK) 3.1 21:25:03 10° WNW 21:27:27 27° N 21:28:12 21° NNE
COSMOS 2406 4.4 21:23:22 10° SW 21:28:50 44° WNW 21:34:18 10° NNE
NOSS 3 (A) 4.5 21:26:59 10° NW 21:29:11 70° NW 21:29:11 70° NW
Terra 4.3 21:26:45 10° SW 21:29:41 16° W 21:32:38 10° NW
Okean O Rocket 3.2 21:29:45 14° SSW 21:32:40 28° W 21:36:23 10° NW
Cosmos 1536 4.4 21:34:14 10° NNE 21:36:59 20° ENE 21:36:59 20° ENE
Cosmos-2242 3.8 21:37:47 32° E 21:37:47 32° E 21:41:24 10° NNE
Cosmos 1428 Rocket 4.4 21:33:03 10° N 21:39:17 75° E 21:42:00 35° SSE
Cosmos 1777 Rocket 4.0 21:36:13 10° NNW 21:41:27 79° WSW 21:43:21 40° S
Cosmos 2333 Rocket 2.8 21:38:24 10° NW 21:43:52 48° WSW 21:46:30 28° SSW
Cosmos 1833 4.1 21:44:13 26° SSW 21:47:32 79° ESE 21:53:11 10° NNE
Okean 1-7 Rocket 3.7 21:44:32 10° NNW 21:49:00 70° W 21:50:19 44° SSW
Cosmos 1503 Rocket 3.9 21:46:20 10° NNW 21:51:32 83° WSW 21:53:04 47° SSE
CZ-2C R/B 3.1 21:52:45 41° WNW 21:52:45 41° WNW 21:54:54 10° NNW
Cosmos 2360 Rocket 2.3 21:48:05 10° NNW 21:53:45 70° WSW 21:55:44 41° S
Cosmos 1766 4.0 21:54:25 10° N 21:56:45 34° NE 21:56:45 34° NE
Cosmos 2034 Rocket 4.0 21:58:36 34° S 22:01:37 89° E 22:08:00 10° N
Cosmos 2221 4.3 22:03:18 18° ENE 22:03:18 18° ENE 22:05:28 10° NE
Cosmos 2333 4.3 21:58:13 10° NNW 22:03:54 70° WSW 22:05:42 44° S
Cosmos 2219 Rocket 2.1 22:00:48 10° NNW 22:06:30 87° WSW 22:08:05 50° SSE
Cosmos 1354 Rocket 3.9 22:01:18 10° NNW 22:06:34 90° W 22:07:46 55° SSE
Cosmos 540 Rocket 3.6 22:07:44 33° SW 22:10:02 73° WNW 22:15:12 10° NNE
Cosmos 1825 Rocket 4.3 22:08:47 10° NNW 22:12:57 45° W 22:13:51 39° SW
Cosmos 2279 Rocket 4.3 22:16:40 42° SE 22:17:59 48° E 22:23:57 10° NNE
Helios 1A 2.9 22:14:35 10° NNE 22:18:07 66° NE 22:18:07 66° NE
Cosmos 1953 Rocket 3.5 22:15:31 10° NNW 22:19:50 67° W 22:20:10 64° SW
RESURS DK-1 3.5 22:16:57 10° N 22:20:34 32° NE 22:20:45 32° ENE
Cosmos 1707 4.1 22:23:33 27° N 22:23:33 27° N 22:25:02 10° N
Aureole 1 Rocket 4.0 22:16:26 10° NNW 22:22:26 81° ENE 22:24:34 47° SSE
Cosmos 1634 Rocket 3.9 22:22:34 49° SSE 22:24:17 76° E 22:30:29 10° N
Cosmos 2322 Rocket 3.2 22:20:59 10° NW 22:26:05 35° WSW 22:27:37 30° SW
Cosmos 1937 Rocket 4.4 22:24:18 10° N 22:29:03 36° ENE 22:30:08 33° E
Cosmos 2058 Rocket 3.0 22:30:59 73° WSW 22:31:11 75° W 22:35:31 10° N
Cosmos 468 Rocket 3.9 22:30:14 55° SSW 22:31:26 85° WNW 22:36:43 10° NNE
Geosat 3.9 22:29:23 10° NNE 22:34:24 82° WNW 22:35:38 52° SW
CZ-2C R/B 4.3 22:30:27 10° NNE 22:34:15 43° E 22:34:15 43° E
BREEZE-M DEB 4.2 22:31:38 10° WSW 22:36:15 86° S 22:48:21 10° E
Cosmos 2026 Rocket 4.3 22:33:21 10° NNW 22:39:38 61° W 22:41:40 42° SSW
Cosmos 44 3.3 22:35:08 10° NW 22:40:32 78° WSW 22:41:01 70° S
Meteor 2-9 Rocket 4.4 22:35:16 10° N 22:40:36 56° ENE 22:41:24 51° ESE
Cosmos 2237 Rocket 3.6 22:39:54 10° N 22:44:53 30° NE 22:47:09 23° E
Cosmos 2266 Rocket 4.5 22:43:24 10° N 22:49:10 44° ENE 22:50:26 39° ESE
USA 234 3.7 22:43:49 10° ENE 22:49:36 41° ESE 22:49:36 41° ESE
Cosmos 1470 3.9 22:47:18 10° N 22:49:19 34° N 22:49:19 34° N
ARIANE 5 R/B 2.9 22:52:41 58° ENE 22:52:41 58° ENE 22:56:59 10° N
ALOS 2 3.1 22:54:46 50° ENE 22:54:46 50° ENE 22:58:55 10° N
Cosmos 2227 Rocket 4.0 22:55:50 16° E 22:55:50 16° E 22:58:39 10° ENE
Helios 1B rocket 3.3 22:58:18 39° NW 22:58:18 39° NW 23:00:43 10° NNW
COSMOS 2428 2.6 22:53:01 10° NNW 22:58:45 81° ENE 22:59:34 66° SE
ISS -1.7 22:59:31 10° NW 23:01:11 26° NW 23:01:11 26° NW
Cosmos 2263 Rocket 4.4 23:03:56 11° E 23:03:56 11° E 23:05:08 10° ENE
Cosmos 1898 Rocket 3.3 22:59:05 10° NNW 23:04:18 85° WSW 23:04:33 80° SSW
CZ-2C R/B 4.0 23:03:47 10° NNE 23:09:09 38° E 23:09:26 38° ESE
Meteor 1-11 Rocket 3.7 23:03:54 10° N 23:09:31 64° ENE 23:10:10 59° ESE
Meteor 1-10 Rocket 4.2 23:11:29 65° SE 23:12:12 72° E 23:18:07 10° NNE
Cosmos 1536 4.5 23:09:07 10° NNW 23:11:30 25° WNW 23:11:30 25° WNW
Cosmos 1238 Rocket 4.5 23:14:04 26° ENE 23:14:04 26° ENE 23:16:52 10° NNE
PSLV R/B 3.9 23:13:35 10° NNE 23:17:16 59° NE 23:17:16 59° NE
Meteor 1-27 Rocket 3.8 23:25:50 59° ESE 23:26:18 61° E 23:31:58 10° NNE
Cosmos 841 Rocket 3.9 23:27:23 50° WSW 23:28:13 56° WNW 23:33:23 10° NNE
Cosmos 2297 Rocket 2.0 23:27:59 73° SE 23:28:15 75° ESE 23:33:53 10° NNE
NOSS 0 Rocket 3.8 23:23:50 10° NNW 23:30:01 79° WSW 23:30:48 67° S
Cosmos 1975 4.3 23:31:15 10° NNW 23:33:29 29° NW 23:33:29 29° NW
Spot 4 4.2 23:36:12 52° W 23:36:12 52° W 23:40:37 10° NNW
Cosmos 2221 3.6 23:39:35 36° WNW 23:39:35 36° WNW 23:43:10 10° N
Cosmos 158 Rocket 4.5 23:39:40 48° E 23:39:40 48° E 23:44:34 10° NNE
Cosmos 1812 Rocket 4.1 23:39:58 51° WNW 23:39:58 51° WNW 23:43:58 10° N
Cosmos 2322 4.3 23:36:55 10° NW 23:42:12 42° WSW 23:42:12 42° WSW
MetOp-A 3.8 23:42:38 77° ENE 23:42:38 77° ENE 23:47:17 10° N
Meteor 1-16 4.4 23:38:49 10° N 23:44:19 86° E 23:44:39 79° SSE
ACS3 Solar Sail 3.0 23:40:10 10° NE 23:45:13 27° E 23:46:10 26° ESE
Cosmos 2219 Rocket 4.3 23:47:09 10° WNW 23:49:31 13° W 23:49:46 13° W
